[[{"header":{"parameterUnit":"m.s-1","parameterCategory":1,"la1":30.2991,"la2":30.254,"lo1":-89.0895,"lo2":-89.0444,"dy":0.0017,"dx":0.0017,"nx":28,"ny":28,"refTime":"2024-07-20T21:00:00:Z","depth":0,"parameterNumber":2,"parameterNumberName":"U-component_of_WINDS"},"data":[0,0,0,0,0,0,0,0,0,0,0,0,0,0,0,0,0,0,0,0,0,0,0,0,0,0,0,0,0,0,0,0,0,0,0,0,0,0,0,0,0,0,0,0,0,0,0,0,0,0,0,0,0,0,0,0,0,0,1.7132,1.7133,0,1.72,1.7201,1.7201,1.7199,1.7198,1.7197,1.7196,1.7263,1.7265,1.7268,0,0,0,0,0,0,0,0,0,0,0,0,0,1.6998,1.7001,1.7132,1.7133,1.7134,1.72,1.7201,1.7202,1.7199,1.7198,1.7196,1.7195,1.7262,1.7265,1.7268,0,0,0,0,0,0,0,0,0,0,0,0,0,1.706,1.7001,1.7132,1.7141,1.7142,1.72,1.7201,1.7202,1.7199,1.7198,1.7196,1.7195,1.7261,1.7265,1.7269,1.7322,0,0,1.7281,1.7283,0,0,0,0,0,0,0,0,1.7057,1.7065,1.7139,1.714,1.7142,1.7189,1.7178,1.7242,1.7199,1.7177,1.7196,1.7194,1.7239,1.7245,1.7261,1.7325,1.7328,1.7281,1.7284,1.7285,1.7287,0,0,0,0,0,0,0,1.7052,1.7062,1.7159,1.714,1.7142,1.714,1.7147,1.719,1.7215,1.7179,1.7179,1.7187,1.724,1.7257,1.7262,1.7329,1.7281,1.7285,1.7287,1.7289,1.7437,1.7438,0,0,0,0,0,0,1.7047,1.7059,1.7157,1.7161,1.7095,1.7144,1.7152,1.7176,1.7215,1.722,1.7188,1.7187,1.7251,1.7258,1.7265,1.7327,1.7285,1.7289,1.7291,1.7435,1.7437,1.7439,0,0,0,0,0,0,1.7044,1.7055,1.7154,1.711,1.7122,1.7147,1.7174,1.7178,1.7194,1.7222,1.7226,1.7201,1.725,1.7259,1.7307,1.7329,1.7291,1.7295,1.7434,1.7436,1.7438,1.7454,0,0,0,0,0,0,1.704,1.7054,1.7075,1.711,1.7125,1.7196,1.7176,1.718,1.7202,1.72,1.7235,1.7239,1.725,1.7301,1.7311,1.7334,1.7298,1.7432,1.7435,1.7437,1.7451,1.7456,1.7461,0,0,0,0,0,1.7035,1.7077,1.7077,1.7088,1.7152,1.7198,1.7206,1.7217,1.7204,1.7224,1.7242,1.7238,1.7326,1.7306,1.7317,1.7342,1.743,1.7434,1.7437,1.7449,1.7455,1.7461,0,0,0,0,0,0,1.7044,1.7082,1.7082,1.7137,1.7164,1.7197,1.7224,1.7224,1.7255,1.7252,1.7264,1.7272,1.732,1.7336,1.7313,1.7394,1.7376,1.7382,1.7382,1.7388,1.7392,1.7386,1.7301,0,0,0,0,0,1.7053,1.7088,1.7119,1.7164,1.7178,1.7199,1.7219,1.7225,1.7254,1.7265,1.7286,1.7313,1.7347,1.7368,1.7401,1.7454,1.746,1.7477,1.7481,1.7485,1.7489,1.7516,1.7523,1.745,1.745,1.745,0,0,1.707,1.7095,1.7117,1.7167,1.7188,1.7223,1.7208,1.7246,1.7271,1.7271,1.7317,1.7333,1.7364,1.7414,1.7438,1.7429,1.7511,1.7489,1.7492,1.7494,1.7521,1.7527,1.7534,1.7453,1.7452,1.7452,0,0,1.712,1.7143,1.7183,1.7205,1.7238,1.7251,1.7261,1.7294,1.7305,1.7351,1.7351,1.7381,1.7439,1.746,1.7479,1.7535,1.7532,1.7546,1.7569,1.7595,1.7601,1.7606,1.7624,1.763,1.755,1.755,1.755,0,1.7137,1.719,1.7203,1.724,1.7261,1.7263,1.7302,1.7322,1.7364,1.7378,1.7369,1.744,1.7461,1.7515,1.7529,1.7545,1.7554,1.7541,1.7599,1.7605,1.7609,1.7626,1.7633,1.7551,1.7551,1.7551,1.7551,0,1.7209,1.7245,1.7273,1.7313,1.7338,1.7376,1.7393,1.7416,1.742,1.7434,1.748,1.7506,1.7542,1.7556,1.7561,1.761,1.7604,1.7597,1.7579,1.7617,1.7633,1.764,1.7553,1.7553,1.7552,1.7552,0,0,1.7265,1.7311,1.7321,1.7339,1.7375,1.7403,1.7441,1.7477,1.7495,1.7524,1.7554,1.7603,1.7596,1.7617,1.7624,1.7647,1.7687,1.7637,1.7638,1.7644,1.7741,1.7744,1.7752,1.7687,1.7688,1.7689,1.7738,0,1.7316,1.7383,1.7395,1.7453,1.7485,1.7487,1.7519,1.7545,1.7558,1.7587,1.7602,1.7636,1.7626,1.7638,1.7661,1.7678,1.7707,1.7675,1.7713,1.7714,1.7703,1.7761,1.7765,1.781,1.7744,1.7745,1.7746,0,1.7385,1.7415,1.7476,1.7507,1.7521,1.755,1.7583,1.7611,1.7639,1.7647,1.767,1.7674,1.7712,1.7693,1.7744,1.7721,1.7738,1.7748,1.775,1.7753,1.7731,1.7762,1.7824,1.783,1.7757,1.7756,1.7755,0,1.7417,1.7473,1.7517,1.7532,1.7569,1.7589,1.7605,1.7632,1.7652,1.7681,1.7694,1.7727,1.7744,1.7769,1.7781,1.7767,1.783,1.7813,1.7836,1.7836,1.7848,1.7847,1.7911,1.7862,1.7862,1.7862,1.7862,0,1.7472,1.7509,1.7531,1.7557,1.7598,1.7611,1.765,1.7666,1.769,1.7718,1.7722,1.7748,1.7764,1.7792,1.7802,1.7841,1.785,1.7856,1.7858,1.7854,1.7853,1.7864,1.786,1.7864,1.7863,1.7863,1.7863,0,1.7514,1.7531,1.7577,1.7609,1.7617,1.7645,1.7672,1.7697,1.771,1.7746,1.7755,1.7776,1.781,1.7825,1.7866,1.7873,1.7916,1.7917,1.7907,1.7907,1.7928,1.7925,1.8,1.801,1.7957,1.7957,1.7958,0,1.7547,1.7575,1.7609,1.7628,1.7645,1.7677,1.7697,1.7711,1.7732,1.7765,1.7785,1.7819,1.7846,1.7899,1.7918,1.7949,1.7949,1.7973,1.7954,1.7949,1.7947,1.7944,1.7946,1.7976,1.7977,1.7977,1.7977,0,1.7602,1.7609,1.7639,1.7671,1.7696,1.7722,1.7747,1.7763,1.778,1.7803,1.7838,1.7859,1.7901,1.7933,1.7965,1.7981,1.7981,1.7984,1.799,1.7986,1.7978,1.798,1.7914,1.7981,1.7981,1.7981,1.798,1.798,1.7639,1.7663,1.7691,1.7723,1.7744,1.7767,1.7791,1.7808,1.7837,1.7872,1.7878,1.7914,1.794,1.7983,1.8,1.8027,1.8021,1.8032,1.8034,1.8036,1.8036,1.7975,1.8034,1.8034,1.8033,1.8033,1.8033,0,1.7693,1.771,1.774,1.7776,1.7801,1.78,1.7828,1.7848,1.788,1.7904,1.7931,1.7969,1.8001,1.8022,1.8053,1.8071,1.8072,1.8078,1.8076,1.8079,1.804,1.803,1.8077,1.8077,1.8077,1.8077,1.8077,1.8077,1.7724,1.7764,1.7773,1.7823,1.784,1.7876,1.7891,1.7912,1.7932,1.7974,1.8,1.8014,1.8036,1.8069,1.8097,1.8102,1.8113,1.812,1.8124,1.8087,1.8082,1.8078,1.8068,1.8122,1.8122,1.816,1.8161,1.8161]},{"header":{"parameterUnit":"m.s-1","parameterCategory":1,"la1":30.2991,"la2":30.254,"lo1":-89.0895,"lo2":-89.0444,"dy":0.0017,"dx":0.0017,"nx":28,"ny":28,"refTime":"2024-07-20T21:00:00:Z","depth":0,"parameterNumber":3,"parameterNumberName":"V-component_of_WINDS"},"data":[0,0,0,0,0,0,0,0,0,0,0,0,0,0,0,0,0,0,0,0,0,0,0,0,0,0,0,0,0,0,0,0,0,0,0,0,0,0,0,0,0,0,0,0,0,0,0,0,0,0,0,0,0,0,0,0,0,0,0.6646,0.6646,0,0.6636,0.6636,0.6636,0.6588,0.6586,0.6585,0.6584,0.6576,0.6577,0.6578,0,0,0,0,0,0,0,0,0,0,0,0,0,0.6624,0.6625,0.6646,0.6646,0.6646,0.6636,0.6636,0.6636,0.6588,0.6586,0.6585,0.6584,0.6576,0.6577,0.6578,0,0,0,0,0,0,0,0,0,0,0,0,0,0.6626,0.6625,0.6646,0.662,0.6618,0.6636,0.6636,0.6636,0.6588,0.6586,0.6585,0.6583,0.6575,0.6577,0.6578,0.662,0,0,0.6582,0.6582,0,0,0,0,0,0,0,0,0.6626,0.6627,0.6624,0.6622,0.662,0.6611,0.6625,0.6631,0.6588,0.66,0.6584,0.6582,0.6589,0.6589,0.6591,0.662,0.662,0.6582,0.6583,0.6583,0.6584,0,0,0,0,0,0,0,0.6626,0.6627,0.6642,0.6624,0.6622,0.661,0.6608,0.6626,0.6604,0.6598,0.6595,0.6594,0.6588,0.659,0.6591,0.6619,0.6582,0.6583,0.6584,0.6584,0.6681,0.6683,0,0,0,0,0,0,0.6629,0.6627,0.6642,0.6642,0.6618,0.6612,0.661,0.6616,0.6604,0.66,0.6596,0.6592,0.6589,0.6589,0.659,0.6639,0.6583,0.6584,0.6585,0.668,0.6682,0.6684,0,0,0,0,0,0,0.6629,0.6631,0.6643,0.6633,0.6634,0.6614,0.6621,0.6616,0.6619,0.6602,0.6598,0.6602,0.6587,0.6588,0.6613,0.6638,0.6585,0.6586,0.6677,0.668,0.6683,0.6737,0,0,0,0,0,0,0.6628,0.6631,0.6647,0.6634,0.6635,0.6666,0.6622,0.6617,0.6621,0.6616,0.6607,0.6604,0.6586,0.6611,0.6614,0.6639,0.6587,0.6675,0.6679,0.6682,0.6733,0.6741,0.6748,0,0,0,0,0,0.6628,0.6663,0.6648,0.665,0.6654,0.6667,0.6667,0.6646,0.6623,0.6639,0.6628,0.6604,0.6634,0.6614,0.6617,0.6642,0.6674,0.6678,0.6682,0.6729,0.6739,0.6748,0,0,0,0,0,0,0.6681,0.6661,0.6644,0.6676,0.6674,0.6659,0.6678,0.6658,0.6662,0.6657,0.6631,0.6629,0.6657,0.6652,0.663,0.6682,0.665,0.6655,0.6685,0.6694,0.6702,0.6703,0.6588,0,0,0,0,0,0.6696,0.6707,0.669,0.672,0.6719,0.6699,0.6704,0.6687,0.6684,0.6683,0.6673,0.6671,0.668,0.6687,0.6694,0.6731,0.6728,0.675,0.6757,0.6764,0.6769,0.6787,0.6797,0.6697,0.6697,0.6697,0,0,0.6728,0.6718,0.6728,0.673,0.6726,0.6739,0.6699,0.6714,0.6724,0.6685,0.6708,0.6701,0.6696,0.6727,0.674,0.6724,0.6795,0.6769,0.6774,0.6776,0.6792,0.6802,0.681,0.67,0.6699,0.6699,0,0,0.6792,0.6787,0.6811,0.6807,0.6801,0.6787,0.6793,0.6781,0.6775,0.6796,0.6767,0.6778,0.6794,0.6792,0.6793,0.6856,0.6834,0.6859,0.6899,0.6918,0.6926,0.6933,0.6955,0.6963,0.6863,0.6864,0.6864,0,0.6833,0.6851,0.6826,0.6843,0.6845,0.6809,0.6834,0.6832,0.6829,0.6831,0.6812,0.6831,0.6826,0.6855,0.687,0.6872,0.6878,0.686,0.6926,0.6933,0.6939,0.696,0.6969,0.6867,0.6866,0.6866,0.6866,0,0.6901,0.6914,0.6935,0.6931,0.6935,0.6956,0.6934,0.6941,0.6924,0.6912,0.6934,0.6926,0.6931,0.6937,0.6921,0.6964,0.6954,0.6931,0.6898,0.6952,0.6971,0.6979,0.6871,0.687,0.6869,0.6868,0,0,0.7001,0.6982,0.699,0.6988,0.6978,0.6988,0.7006,0.701,0.7017,0.7015,0.7031,0.7044,0.7023,0.7024,0.7007,0.7023,0.7073,0.6998,0.6998,0.7013,0.712,0.7137,0.7147,0.7058,0.7059,0.706,0.712,0,0.7063,0.7094,0.7071,0.7106,0.7117,0.7083,0.7099,0.7095,0.7084,0.7092,0.708,0.709,0.7061,0.7061,0.7075,0.7064,0.7094,0.7059,0.7072,0.7073,0.7075,0.7157,0.7176,0.7233,0.7128,0.7129,0.713,0,0.714,0.7141,0.7177,0.7163,0.7167,0.7182,0.7183,0.7191,0.7186,0.7176,0.7177,0.7155,0.7173,0.714,0.7164,0.714,0.7144,0.7139,0.7141,0.7142,0.7105,0.7161,0.7251,0.726,0.7141,0.7141,0.714,0,0.7209,0.7219,0.7242,0.7241,0.7226,0.7237,0.7232,0.7224,0.7227,0.7228,0.723,0.7233,0.7235,0.7238,0.7218,0.7196,0.7245,0.721,0.7238,0.7238,0.7251,0.725,0.7343,0.7252,0.7252,0.7252,0.7252,0,0.7281,0.7305,0.7273,0.7287,0.7311,0.7285,0.731,0.7301,0.7294,0.7306,0.7276,0.7288,0.726,0.7269,0.7253,0.7275,0.7276,0.7269,0.7265,0.7272,0.7273,0.7275,0.7271,0.7254,0.7254,0.7253,0.7253,0,0.7364,0.7343,0.7365,0.7348,0.7344,0.7364,0.7349,0.7362,0.7348,0.7363,0.7365,0.7344,0.7352,0.7332,0.7338,0.7327,0.7359,0.7348,0.7361,0.7358,0.7387,0.7385,0.7485,0.7496,0.7398,0.7399,0.74,0,0.7411,0.7428,0.7413,0.7418,0.7413,0.7422,0.7425,0.7399,0.7403,0.7397,0.741,0.7416,0.742,0.7435,0.7421,0.7425,0.7414,0.7449,0.7415,0.7421,0.7415,0.7414,0.7416,0.7456,0.7457,0.7458,0.7459,0,0.7498,0.7487,0.7492,0.7493,0.7497,0.7497,0.7494,0.7501,0.7473,0.7479,0.7487,0.7489,0.7495,0.7501,0.7502,0.7496,0.7473,0.747,0.7476,0.7485,0.7491,0.7488,0.7381,0.7468,0.7467,0.7466,0.7466,0.7465,0.7565,0.7578,0.7569,0.7575,0.757,0.7568,0.7579,0.7566,0.7572,0.7574,0.7558,0.7569,0.7562,0.756,0.7557,0.7565,0.755,0.7559,0.7562,0.7565,0.757,0.7489,0.7565,0.7565,0.7565,0.7564,0.7564,0,0.7651,0.7642,0.7648,0.7645,0.765,0.7627,0.7623,0.7629,0.7639,0.7633,0.7637,0.7646,0.7652,0.7637,0.764,0.765,0.764,0.7652,0.7651,0.765,0.7584,0.7578,0.766,0.766,0.766,0.766,0.766,0.766,0.7696,0.7716,0.7704,0.7722,0.7713,0.7724,0.7723,0.7722,0.7717,0.7728,0.7732,0.7722,0.7713,0.7715,0.772,0.7715,0.7718,0.7734,0.7726,0.7664,0.7655,0.7646,0.764,0.7735,0.7735,0.7792,0.7792,0.7793]}]]